Location: Oshawa
(43.9000°N, 78.8670°W)
Time: 16:31:54
(UTC-04:00)

Thor Agena Rocket - Visible Passes

Search period start: 23 May 2017 00:00
Search period end: 02 June 2017 00:00
Orbit: 760 x 808 km, 99.1° (Epoch: 22 May)

Date Brightness Start Highest point End Pass type
(mag) Time Alt. Az. Time Alt. Az. Time Alt. Az.
23 May 6.7 04:54:04 10° E 04:57:25 17° ENE 05:00:47 10° NNE visible
26 May 6.7 04:59:21 10° ESE 05:02:57 19° ENE 05:06:34 10° NNE visible
27 May 7.3 04:31:14 10° ENE 04:32:11 10° NE 04:33:08 10° NE visible
30 May 7.2 04:35:59 10° ENE 04:37:41 12° NE 04:39:24 10° NE visible
